Other Public Products
Issued by NWS Grand Forks, ND

Home | Current Version | Previous Version | Graphics & Text | Print | Product List | Glossary On
Versions: 1 2 3 4 5 6 7 8 9 10 11 12 13 14 15 16 17 18 19 20 21 22 23 24 25 26 27 28 29 30 31 32 33 34 35 36 37 38 39 40 41 42 43 44 45 46 47 48 49 50
000
FPUS83 KFGF 130410
OPUFGF
PRAIRIE TO PINES WEATHER ROUNDUP
NATIONAL WEATHER SERVICE EASTERN NORTH DAKOTA/GRAND FORKS ND
1000 PM CST FRI FEB 12 2016

 **SATELLITE DATA USED TO AUGMENT SKY COVER AT AUTOMATED STATIONS**
 *****  WEATHER ACROSS EASTERN NORTH DAKOTA  *****

CITY           SKY/WX    TMP DP  RH WIND       PRES   REMARKS
GRAND FORKS    CLOUDY    -6 -13  71 NW3       30.67F
GRAND FORKS AF CLOUDY    -8 -14  74 N2        30.65F
GRAND CITY NWS NOT AVBL
BUXTON         NOT AVBL
DEVILS LAKE    CLOUDY   -17 -22  78 CALM      30.59F
FARGO          CLOUDY    -5 -13  68 N5        30.67F WCI -16
WAHPETON ARPT  CLOUDY    -6 -13  71 NW7       30.68R WCI -20
$$

 *****  WEATHER ACROSS CENTRAL AND WESTERN NORTH DAKOTA  *****

CITY           SKY/WX    TMP DP  RH WIND       PRES   REMARKS
JAMESTOWN      CLOUDY    -9 -13  83 CALM      30.59S
BISMARCK       CLOUDY     2  -5  72 E8        30.55R WCI -12
MINOT          CLOUDY     4  -7  60 SE9       30.50F WCI -10
MINOT AFB      CLOUDY    -2  -7  78 CALM      30.49F
GARRISON         N/A      2  -4  76 SE9       30.46F WCI -13
WILLISTON      CLOUDY    12   2  64 SE10      30.38F WCI  -1
DICKINSON      CLOUDY    10   3  73 SE18      30.31F WCI  -8
HETTINGER      LGT SNOW  11   6  81 SE16      30.36F WCI  -6
$$

 *****  OTHER OBSERVATIONS NORTHEAST NORTH DAKOTA  *****

CITY           SKY/WX    TMP DP  RH WIND       PRES   REMARKS
WALHALLA       FAIR      -9 -15  77 CALM      30.65F
LANGDON        FAIR     -18 -24  76 CALM      30.56F
CAVALIER       FAIR      -8 -11  84 CALM      30.66F
GRAFTON        FAIR      -8 -13  77 CALM      30.68F
CANDO          NOT AVBL
FORT TOTTEN      N/A    -12 -17  77 CALM      29.95S
ROLLA          FAIR     -20 -26  76 SW8       30.53F WCI -39
RUGBY          FAIR      -2  -8  78 SE7       30.55F WCI -16
 ***** THE ABOVE OBSERVATIONS ARE NON NWS ARE NOT QUALITY
        CONTROLLED AND MAY MIS-REPORT RAIN FOR SNOW...
$$

 *****  OTHER OBSERVATIONS SOUTHEAST NORTH DAKOTA *****

CITY           SKY/WX    TMP DP  RH WIND       PRES   REMARKS
COOPERSTOWN    NOT AVBL
VALLEY CITY    FAIR     -13 -17  84 W5        30.63S WCI -25
OAKES          FAIR      -4  -9  77 N3        30.63F
GWINNER        FAIR      -9 -15  77 NW5       30.65R WCI -21
SHEYENNE NWR     N/A    -19 -27  67 W3        29.95S
BUFFALO        NOT AVBL
WYNDMERE       NOT AVBL
 ***** THE ABOVE OBSERVATIONS ARE NON NWS ARE NOT QUALITY
       CONTROLLED AND MAY MIS-REPORT RAIN FOR SNOW...
$$

  *****  WEATHER ACROSS NORTHERN MINNESOTA  *****

CITY           SKY/WX    TMP DP  RH WIND       PRES   REMARKS
FLAG ISLAND    CLOUDY   -15 -20  76 NW6       30.56F WCI -29
WARROAD        CLOUDY   -15 -22  70 W5        30.59S WCI -27
ROSEAU         CLOUDY   -11 -18  70 W7        30.61S WCI -26
HALLOCK        CLOUDY    -9 -17  70 CALM      30.66S
THF RVR FALLS  CLOUDY   -11 -29  40 NW7       30.63R WCI -26
HALSTAD        NOT AVBL
FOSSTON          N/A    -17 -22  76 CALM      30.61S
BAUDETTE       CLOUDY   -14 -23  64 W6        30.55S WCI -28
WASKISH        CLOUDY   -15 -20  76 SW7       30.57R WCI -31
CROOKSTON      CLOUDY    -9 -15  77 N3        30.67F
$$
  *****  WEATHER ACROSS CENTRAL AND WEST MINNESOTA  *****

CITY           SKY/WX    TMP DP  RH WIND       PRES   REMARKS
BEMIDJI        CLOUDY   -13 -18  77 W5        30.56S WCI -25
PARK RAPIDS    CLOUDY   -13 -19  75 NW9       30.56S WCI -31
WADENA         CLOUDY    -9 -17  70 NW6       30.58S WCI -23
DETROIT LAKES  CLOUDY    -9 -13  84 N3        30.60S
MOORHEAD       CLOUDY    -6 -11  77 NW5       30.67F WCI -17
FERGUS FALLS   CLOUDY    -6 -11  77 NW7       30.67F WCI -20
ELBOW LAKE     FAIR      -5 -10  77 N8        30.62F WCI -20
MORRIS MN      CLOUDY    -4  -9  77 NW12      30.61F WCI -22
STAPLES        CLOUDY   -11 -17  77 NW9       30.58R WCI -29
WHEATON        CLOUDY    -6 -11  77 NW6       30.69R WCI -18
$$
  *****  WEATHER ELSEWHERE ACROSS MINNESOTA  *****

CITY           SKY/WX    TMP DP  RH WIND       PRES   REMARKS
DULUTH         CLEAR     -7 -19  56 NW12      30.46R WCI -26
INTRNTL FALLS  CLOUDY   -12 -20  67 NW9       30.53R WCI -30
ELY            CLEAR    -11 -18  70 NW7       30.45R WCI -26
CLOQUET        CLEAR     -6 -18  54 NW7       30.49S WCI -20
BRAINERD       CLOUDY    -6 -16  61 NW10      30.56R WCI -24
HIBBING        CLOUDY   -10 -19  64 NW14      30.49R WCI -31
ALEXANDRIA     CLOUDY    -6 -14  68 NW7       30.58S WCI -20
SAINT CLOUD    CLOUDY    -3 -12  65 NW12      30.60R WCI -21
MINNEAPOLIS    CLEAR      2 -10  57 NW13      30.59R WCI -15
$$

  *****  WEATHER ACROSS SOUTH DAKOTA  *****

CITY           SKY/WX    TMP DP  RH WIND       PRES   REMARKS
SIOUX FALLS    CLOUDY     1  -6  72 NW5       30.61R WCI  -9
BROOKINGS      CLOUDY    -5 -11  75 N6        30.59R WCI -18
WATERTOWN      CLOUDY    -8 -15  71 N6        30.57S WCI -21
HURON          CLOUDY     2  -5  72 NE6       30.63F WCI  -9
SISSETON         N/A     -8 -13  78 NW6       30.66R WCI -21
ABERDEEN       CLOUDY    -1  -9  68 E3        30.63F
MITCHELL       CLOUDY     4  -3  73 NE5       30.63S WCI  -5
PIERRE         CLOUDY    13   7  77 E12       30.52S WCI  -1
MOBRIDGE       CLOUDY     6   0  76 SE10      30.50S WCI  -9
RAPID CITY     CLOUDY    23  21  92 SE16      30.28F WCI  10
$$

  *****  SOME WEATHER IN NEARBY STATES *****

CITY           SKY/WX    TMP DP  RH WIND       PRES   REMARKS
GLASGOW MT     CLOUDY    18  13  80 E21       30.17F WCI   1
GREAT FALLS MT CLOUDY    45  32  60 SW13      29.99F
CHEYENNE WY    CLOUDY    31  29  92 S8        30.22F WCI  23
SCOTTSBLUFF NE CLOUDY    32  30  92 SE13      30.27F WCI  22
OMAHA NE       MOCLDY    14   3  61 N10       30.66R WCI   1
DES MOINES IA  CLOUDY     7  -2  66 N8        30.62R WCI  -6
DAVENPORT IA   CLEAR      8  -3  61 NW18      30.52R WCI -11
CHICAGO IL     PTCLDY     9  -8  46 N23G30    30.42R WCI -11
EAU CLAIRE WI  CLEAR      0 -16  46 NW8       30.52R WCI -14
LA CROSSE WI   CLEAR      2 -11  54 NW8       30.55R WCI -12
$$

  *****  SOME NATIONAL WEATHER *****

CITY           SKY/WX    TMP DP  RH WIND       PRES   REMARKS
LA GUARDIA NY  CLOUDY    24   6  46 W13       29.94F WCI  12
RALEIGH NC     MOCLDY    30  22  72 SW7       30.03F WCI  23
ATLANTA GA     PTCLDY    43  28  55 NW15G22   30.18R
NEW ORLEANS LA PTCLDY    63  47  55 N10       30.28R
OKLAHOMA CITY  PTCLDY    42  27  55 NE10      30.43R
ALBUQUERQUE NM CLOUDY    49  19  30 CALM      30.31S
SALT LAKE CITY CLOUDY    30  28  92 CALM      30.33S FOG
LOS ANGELES CA PTCLDY    61  55  81 SW6       30.06S
BOISE ID       CLOUDY    42  34  73 CALM      30.22S
SEATTLE WA     PTCLDY    50  43  77 S9        30.17R
$$

*** WEATHER ACROSS MANITOBA...SASKATCHEWAN AND ONTARIO ***
                ***ONTARIO***

CITY           SKY/WX    TMP DP  RH WIND       PRES   REMARKS
GERALDTON      CRYSTALS -15 -22  70 NW9       30.27R WCI -33
THUNDER BAY      N/A     -8 -18  59 W8        30.45R WCI -23
SIOUX LOOKOUT  CLEAR    -13 -20  70 NW12      30.43S WCI -33
TORONTO        MOCLDY    10   3  72 N20G29    29.95R WCI  -8
BIG TROUT LK   CLEAR    -18 -24  76 NW10      30.35F WCI -39
PICKLE LAKE    NOT AVBL
DRYDEN         CLEAR    -15 -20  76 W9        30.45S WCI -33
KENORA         CLEAR    -15 -22  70 NW9       30.51S WCI -33
$$
                *** MANITOBA***

CITY           SKY/WX    TMP DP  RH WIND       PRES   REMARKS
BRANDON        NOT AVBL
DAUPHIN        CLEAR    -20 -27  69 SW5       30.59F WCI -33
ISLAND LAKE    NOT AVBL
PILOT MOUND      N/A    -20 -26  76 S5          N/A  WCI -33
THE PAS        PTCLDY   -22 -29  69 SE5       30.55F WCI -36
THOMPSON       CLEAR    -17 -22  76 CALM      30.51F
WINNIPEG       CLEAR    -13 -20  70 W8        30.65S WCI -30
LYNN LAKE      CLOUDY   -22 -26  83 SW6       30.44F WCI -38
CHURCHILL      CRYSTALS -17 -24  70 NW15      30.44F WCI -41
$$
                ***SASKATCHEWAN***

CITY           SKY/WX    TMP DP  RH WIND       PRES   REMARKS
ESTEVAN        NOT AVBL
KINDERSLEY     LGT SNOW  14  12  92 SE26      30.02F DRFTSNOWWCI  -6
LLOYDMINSTER   CLOUDY     9   3  78 SE18      30.06F WCI -10
PRINCE ALBERT  PTCLDY   -15 -22  70 E10       30.37F WCI -35
REGINA         CLOUDY     9   0  66 SE21      30.33F WCI -11
YORKTON        CLEAR    -17 -22  76 SE5       30.47F WCI -29
N. BATTLEFORD  CLOUDY     3  -2  78 SE26      30.19F FC1F1C2F2C3F3C4F4C5F5C6F6C7F7C8F8C9F9CaFaCbFbCcFcCdFdCe!


USA.gov is the U.S. government's official web portal to all federal, state and local government web resources and services.